Wind_Speed
32 31 31 31 32 34 36 38 38 39 40 40 39 39 38 38 38 38 39 40 41 42 43 42 43 43 43 42 42 41 40 40 41 42 41 40 39 38 37 38 39 40 40
29 29 30 32 32 33 35 36 36 38 39 40 40 40 39 38 38 39 39 40 41 42 42 42 41 41 41 41 40 40 41 40 41 42 42 40 39 39 39 39 41 40 39
27 29 32 32 33 33 33 33 34 35 36 37 38 39 38 37 36 36 36 37 38 38 38 39 39 38 39 38 38 39 39 39 39 41 42 42 40 39 38 39 40 39 38
26 29 31 32 32 32 32 33 34 35 37 37 38 38 38 38 37 36 35 35 36 36 37 38 38 38 39 40 39 40 40 41 40 40 42 43 42 41 38 37 39 39 37
24 27 29 31 31 32 33 34 36 38 39 40 39 39 40 40 40 39 38 37 37 37 38 39 40 41 41 42 43 43 43 43 42 42 42 43 43 42 40 37 37 37 35
25 27 29 31 32 33 34 35 37 39 41 42 42 42 42 42 42 41 40 39 39 39 39 40 40 42 43 44 45 45 46 45 45 44 44 44 43 41 40 37 36 36 35
26 27 28 31 32 33 33 35 37 39 40 41 42 43 44 44 44 43 43 42 41 41 41 41 42 43 44 45 46 47 47 46 46 46 45 44 42 40 38 36 34 34 34
28 29 31 32 34 34 35 36 37 38 39 40 41 41 42 43 44 45 45 45 44 44 44 44 45 45 45 46 46 46 46 46 46 46 45 43 40 37 35 34 33 33 32
30 31 33 34 35 36 37 38 39 40 41 41 40 40 40 40 41 43 45 46 46 46 46 46 46 46 45 45 44 44 43 43 43 42 41 38 34 32 31 31 32 32 31
32 33 34 35 36 37 37 39 40 40 41 42 41 40 39 39 39 40 41 43 44 45 45 45 44 43 42 41 40 38 37 36 36 34 32 30 29 29 28 29 29 29 28
34 35 36 36 36 36 37 38 39 40 41 42 42 41 39 38 37 37 38 39 39 40 40 40 39 39 37 35 32 30 29 29 28 28 27 25 25 25 26 26 26 25 25
37 38 39 40 39 38 38 38 39 39 40 41 40 40 39 37 36 35 35 35 35 35 35 35 34 33 31 28 26 24 25 25 26 25 25 24 24 24 23 21 20 19 18
40 41 42 43 42 41 40 39 39 39 39 40 40 39 38 35 34 33 32 32 31 31 31 30 29 27 24 23 22 24 26 25 23 23 22 21 20 19 17 15 13 13 12
43 44 44 45 45 45 43 41 40 39 39 39 38 38 36 34 32 31 30 29 28 27 26 24 23 21 20 20 20 23 25 23 22 22 20 18 16 14 13 11 11 11 11
45 46 47 48 48 48 46 43 40 39 38 37 37 36 35 32 31 29 28 26 24 23 22 21 19 17 15 17 18 20 22 22 22 20 17 15 12 10 9 9 10 10 11
49 49 50 50 50 49 48 46 42 39 38 37 36 35 33 31 29 28 26 24 22 20 19 17 15 14 14 16 17 18 19 19 19 16 14 12 10 9 8 9 10 11 12
54 54 53 52 51 50 49 47 45 41 39 37 36 34 32 29 28 27 24 22 20 18 16 14 12 10 10 13 13 14 15 15 13 12 10 9 9 9 9 10 11 12 13
60 59 59 58 56 54 52 49 47 44 41 39 36 34 32 29 27 25 23 20 17 16 15 13 11 10 8 8 9 9 9 9 9 8 8 8 8 8 9 10 10 11 11
66 66 65 64 62 60 57 54 50 47 44 41 38 36 32 29 26 24 22 19 16 15 14 14 12 11 10 9 8 8 7 7 7 7 6 7 7 8 8 8 9 8 8
70 71 70 69 67 65 62 60 55 51 47 43 40 37 33 30 26 24 21 19 16 14 14 13 13 12 10 9 8 7 8 7 7 6 6 7 7 7 7 7 6 6 7
76 76 76 75 73 71 68 64 59 54 50 46 42 38 35 32 27 24 22 20 17 15 13 13 12 11 10 9 8 8 9 8 7 7 6 6 6 6 6 6 6 6 8
77 76 74 72 72 71 69 65 60 56 52 49 44 39 36 33 29 26 24 21 18 15 14 13 11 10 9 8 8 8 8 7 8 7 7 7 6 6 6 6 7 7 9
67 62 60 59 58 58 59 58 56 54 52 51 47 41 37 34 31 28 25 22 19 16 14 12 11 10 9 9 9 9 8 8 8 8 7 7 7 7 7 7 8 9 10
50 49 48 48 46 46 47 48 50 52 52 50 46 43 39 36 33 31 28 24 20 17 15 14 13 12 11 10 10 10 9 8 8 8 7 7 8 8 8 9 9 9 10
43 43 44 44 42 41 39 39 44 46 50 48 45 44 41 37 35 34 30 25 22 19 18 17 15 14 13 12 11 11 10 9 9 8 8 8 9 9 9 9 8 8 10
42 44 44 44 42 40 37 35 38 42 45 46 45 44 42 39 37 36 33 28 24 21 20 19 18 16 14 13 12 12 11 10 10 9 9 9 9 9 9 8 8 9 10
Wind_Direction
284 287 289 291 292 293 293 291 288 286 285 284 283 281 279 278 278 277 276 276 276 276 276 276 276 277 279 279 281 282 281 281 280 281 282 282 280 280 278 273 269 265 260
289 293 295 296 296 295 292 290 288 287 286 285 285 283 282 280 279 278 277 277 277 277 278 277 276 276 277 277 278 279 280 281 281 281 281 282 281 279 277 273 271 267 263
290 293 297 299 298 295 292 291 290 288 288 287 287 286 286 284 282 280 279 279 280 279 279 279 279 278 278 278 279 279 280 281 281 282 282 282 280 278 275 275 273 268 262
290 293 297 298 297 295 294 294 294 292 291 289 288 287 287 287 286 285 283 283 284 284 284 284 283 283 282 282 282 282 282 282 282 281 281 281 281 278 274 271 270 266 260
295 296 297 298 299 299 299 298 297 295 293 291 288 287 285 285 285 285 285 284 284 285 285 284 284 284 283 283 283 283 283 283 282 280 280 280 279 276 274 271 268 264 258
294 297 301 304 305 306 306 305 302 299 297 294 291 288 285 283 283 282 282 282 282 282 283 283 283 283 283 282 281 281 282 282 280 279 279 278 276 273 271 270 267 262 256
303 307 311 313 314 316 315 313 309 306 302 299 296 291 287 284 283 282 282 282 282 282 283 284 284 284 283 282 281 280 280 279 277 277 276 276 274 270 268 266 263 260 253
317 319 321 322 323 324 322 320 318 316 312 308 304 298 293 289 286 285 284 284 284 284 285 286 286 285 284 282 281 280 278 277 276 274 273 272 270 267 264 261 260 257 253
322 323 324 324 325 325 325 324 322 321 319 316 312 308 302 297 292 289 287 287 287 287 287 288 287 286 284 283 281 278 277 275 273 271 270 268 265 262 258 257 256 252 249
322 322 322 322 323 323 322 321 320 321 321 320 317 313 308 302 298 294 292 291 290 290 289 288 288 286 285 283 280 277 275 272 269 268 265 262 260 256 252 249 249 244 238
319 318 317 317 317 316 315 316 318 319 320 320 318 315 310 305 300 297 295 293 293 292 290 289 288 287 285 281 275 271 268 262 257 254 253 253 250 244 239 237 235 232 230
313 311 310 310 311 312 312 313 315 316 317 318 318 316 312 306 302 299 297 296 296 294 293 292 291 288 283 276 266 259 252 247 242 240 238 235 231 228 228 230 231 232 233
305 304 304 305 306 307 308 309 311 312 314 316 317 317 313 307 303 300 300 300 300 299 298 296 293 288 278 267 255 245 239 233 231 226 214 211 216 222 227 232 238 243 245
301 301 301 301 301 302 303 304 305 308 309 312 314 316 314 308 304 301 301 302 303 303 303 301 294 285 271 257 241 229 223 221 218 211 212 218 225 231 234 245 250 250 250
299 299 299 298 298 298 299 299 300 302 304 307 310 313 313 308 304 302 302 303 303 305 307 303 295 280 263 248 233 221 219 215 211 214 223 234 240 241 244 249 249 251 252
296 296 295 295 294 295 296 297 297 298 300 302 305 308 309 305 302 300 301 300 301 305 308 306 294 278 257 244 236 222 217 216 217 219 227 235 239 239 240 245 249 253 256
294 294 294 293 292 292 293 294 295 295 295 296 298 301 303 300 297 297 297 296 297 300 302 303 300 287 266 247 239 233 225 223 220 219 222 226 232 237 245 249 252 256 260
293 292 292 291 290 288 288 289 290 290 290 290 290 293 295 293 290 291 290 289 290 293 295 297 297 291 276 258 242 233 230 229 227 224 225 230 234 242 245 250 256 259 263
291 290 289 287 286 284 282 282 283 284 284 284 283 284 287 284 281 282 280 280 281 285 288 290 290 284 277 268 252 240 233 230 226 224 228 232 236 243 247 250 253 255 261
288 287 286 284 282 280 279 278 276 275 275 276 276 275 276 274 270 270 269 269 271 276 280 283 283 276 267 260 251 243 233 225 224 226 231 233 236 238 240 239 242 252 266
291 290 288 285 282 279 276 273 270 267 266 266 266 266 268 264 259 258 257 258 260 266 270 275 274 267 257 245 235 231 226 219 214 211 213 217 221 224 231 236 245 260 277
294 293 291 289 285 280 275 269 265 260 257 255 256 258 258 254 249 246 246 247 250 256 260 264 261 254 243 228 217 208 206 200 196 199 202 208 215 223 231 244 260 276 290
297 297 296 295 292 284 275 267 259 253 250 246 246 249 248 245 240 236 236 238 241 245 247 246 242 234 221 211 204 201 200 199 202 205 209 215 222 232 245 260 272 283 293
300 302 303 304 301 292 278 264 255 248 245 242 240 239 242 238 233 229 228 230 233 233 232 228 225 220 214 207 203 202 205 211 213 212 215 221 230 245 258 267 273 283 297
301 303 304 304 304 300 289 268 251 243 241 239 235 232 233 229 226 223 220 221 224 222 218 215 213 212 211 211 209 208 209 212 218 223 227 231 240 252 263 269 278 292 308
302 302 302 301 302 300 291 274 254 239 236 235 232 227 226 222 220 217 215 214 216 215 211 209 208 210 211 213 215 215 215 218 223 228 232 238 246 256 264 271 282 293 303
Height
5887 5886 5884 5881 5877 5873 5869 5865 5861 5858 5855 5853 5852 5851 5849 5847 5846 5844 5842 5839 5837 5835 5834 5833 5832 5830 5828 5826 5826 5825 5824 5824 5823 5822 5822 5822 5822 5822 5822 5821 5821 5821 5822
5880 5879 5876 5873 5870 5866 5862 5858 5854 5850 5847 5844 5842 5840 5839 5837 5836 5834 5832 5829 5827 5825 5823 5822 5821 5820 5818 5817 5816 5815 5814 5814 5813 5811 5810 5811 5813 5812 5811 5810 5810 5810 5811
5873 5871 5868 5865 5862 5858 5855 5851 5847 5843 5839 5836 5833 5830 5828 5827 5825 5824 5822 5820 5817 5815 5813 5812 5810 5809 5808 5807 5807 5806 5804 5804 5803 5801 5800 5799 5801 5802 5802 5801 5799 5799 5800
5866 5864 5861 5858 5855 5851 5847 5842 5838 5834 5831 5828 5825 5822 5819 5817 5815 5813 5812 5810 5808 5806 5804 5802 5800 5799 5797 5796 5796 5795 5794 5793 5793 5792 5790 5789 5789 5789 5791 5791 5789 5789 5790
5859 5857 5855 5851 5847 5842 5838 5834 5829 5825 5822 5819 5816 5813 5811 5808 5806 5804 5802 5801 5799 5796 5794 5792 5791 5789 5788 5786 5785 5784 5783 5782 5782 5781 5780 5778 5778 5778 5778 5780 5781 5780 5781
5854 5851 5848 5843 5838 5834 5829 5825 5821 5817 5813 5809 5806 5803 5801 5798 5796 5794 5792 5791 5789 5787 5785 5783 5781 5779 5778 5776 5774 5773 5772 5771 5770 5769 5768 5767 5767 5767 5768 5769 5770 5770 5771
5846 5842 5838 5834 5830 5826 5822 5817 5813 5808 5804 5799 5795 5792 5789 5786 5784 5782 5781 5779 5778 5776 5774 5772 5770 5768 5766 5765 5763 5762 5760 5759 5758 5757 5756 5756 5756 5757 5758 5759 5760 5761 5762
5836 5832 5829 5825 5822 5818 5814 5810 5805 5800 5795 5790 5785 5781 5777 5774 5771 5769 5768 5766 5765 5763 5761 5759 5757 5755 5754 5752 5750 5749 5747 5746 5745 5744 5744 5744 5745 5746 5748 5750 5751 5752 5754
5829 5826 5822 5819 5816 5812 5808 5802 5797 5792 5786 5781 5776 5771 5767 5763 5760 5757 5755 5753 5751 5750 5748 5746 5744 5742 5740 5738 5737 5735 5734 5733 5733 5732 5733 5733 5735 5736 5738 5741 5743 5745 5746
5823 5820 5817 5814 5810 5806 5801 5796 5791 5785 5779 5773 5768 5763 5758 5753 5750 5747 5744 5741 5739 5737 5735 5733 5731 5729 5727 5725 5724 5723 5722 5721 5721 5721 5722 5724 5726 5728 5730 5733 5735 5737 5739
5818 5814 5811 5807 5804 5800 5795 5790 5784 5778 5772 5767 5761 5755 5750 5745 5741 5737 5734 5731 5728 5725 5723 5720 5718 5716 5715 5713 5713 5712 5712 5711 5712 5713 5715 5717 5719 5721 5724 5726 5728 5730 5732
5811 5807 5803 5799 5796 5792 5787 5782 5777 5771 5765 5760 5754 5748 5742 5737 5733 5729 5725 5722 5719 5716 5713 5710 5707 5705 5704 5703 5703 5703 5703 5704 5705 5706 5708 5710 5713 5716 5718 5721 5723 5726 5727
5803 5798 5794 5790 5786 5782 5778 5773 5768 5763 5758 5752 5747 5741 5735 5730 5725 5721 5718 5714 5711 5708 5705 5701 5698 5696 5695 5695 5695 5696 5697 5697 5699 5701 5702 5704 5708 5711 5714 5716 5718 5721 5723
5794 5789 5784 5779 5775 5771 5767 5763 5759 5754 5749 5744 5739 5734 5729 5723 5719 5715 5712 5708 5705 5701 5698 5694 5692 5690 5689 5689 5689 5689 5690 5692 5694 5696 5698 5700 5703 5706 5709 5711 5714 5716 5718
5783 5778 5773 5768 5763 5759 5756 5752 5749 5745 5741 5736 5732 5727 5722 5717 5713 5709 5706 5703 5699 5696 5693 5690 5687 5685 5684 5684 5684 5683 5685 5687 5689 5691 5694 5696 5699 5701 5704 5707 5709 5712 5714
5771 5766 5761 5756 5751 5747 5744 5741 5738 5735 5731 5728 5723 5719 5715 5710 5707 5704 5701 5697 5694 5692 5689 5686 5684 5682 5681 5681 5680 5680 5682 5683 5685 5687 5690 5693 5695 5697 5700 5703 5706 5708 5710
5757 5752 5747 5743 5738 5734 5731 5728 5726 5724 5721 5718 5715 5711 5707 5703 5701 5698 5695 5692 5690 5688 5686 5684 5682 5680 5679 5679 5679 5679 5680 5681 5682 5684 5687 5689 5692 5694 5697 5700 5702 5703 5705
5740 5735 5730 5726 5722 5719 5716 5714 5713 5711 5709 5707 5705 5702 5699 5696 5694 5692 5690 5688 5685 5684 5683 5681 5680 5679 5678 5677 5677 5677 5678 5679 5680 5682 5684 5687 5689 5691 5694 5696 5698 5700 5701
5722 5717 5712 5708 5704 5701 5699 5699 5698 5698 5697 5696 5694 5692 5690 5688 5687 5686 5684 5683 5681 5680 5679 5679 5677 5677 5676 5675 5675 5676 5676 5677 5679 5680 5683 5685 5687 5689 5691 5693 5695 5696 5697
5703 5697 5692 5687 5684 5681 5680 5680 5681 5681 5682 5682 5682 5681 5680 5679 5679 5678 5678 5677 5676 5676 5675 5675 5675 5674 5673 5673 5673 5674 5674 5675 5677 5679 5681 5683 5685 5687 5689 5690 5692 5693 5693
5680 5673 5667 5663 5659 5656 5656 5656 5659 5662 5664 5666 5667 5669 5669 5669 5669 5670 5671 5671 5671 5671 5671 5671 5671 5671 5671 5671 5671 5671 5672 5674 5676 5677 5679 5681 5683 5685 5686 5688 5689 5689 5690
5654 5646 5639 5634 5629 5625 5625 5628 5633 5638 5643 5647 5651 5654 5657 5658 5659 5661 5663 5664 5664 5665 5666 5667 5668 5668 5669 5669 5669 5669 5671 5673 5675 5676 5678 5680 5681 5682 5684 5685 5686 5686 5686
5629 5622 5615 5610 5604 5599 5597 5600 5607 5613 5620 5626 5633 5638 5642 5645 5648 5652 5654 5657 5658 5659 5661 5663 5664 5666 5667 5667 5668 5668 5669 5671 5673 5674 5676 5677 5679 5680 5681 5682 5682 5683 5683
5610 5603 5597 5591 5585 5579 5576 5577 5582 5590 5598 5606 5614 5621 5627 5632 5636 5641 5646 5649 5651 5653 5655 5658 5660 5662 5664 5665 5666 5667 5668 5669 5671 5672 5674 5675 5676 5677 5678 5678 5679 5679 5679
5596 5589 5582 5576 5571 5565 5561 5559 5563 5569 5578 5587 5596 5605 5612 5618 5624 5630 5636 5641 5644 5647 5650 5652 5655 5659 5661 5663 5664 5665 5666 5667 5669 5670 5671 5672 5673 5674 5674 5675 5675 5675 5675
5582 5575 5568 5562 5557 5552 5548 5546 5547 5553 5560 5570 5579 5588 5597 5605 5612 5619 5626 5632 5637 5640 5644 5647 5650 5654 5657 5659 5661 5662 5664 5665 5666 5668 5669 5670 5670 5671 5671 5672 5672 5672 5672